Weather History for Baton Rouge, LA

Change the Weather History Date:

Saturday, October 19, 2013

  Actual Average Record
Temperature  
Mean Temperature 65 °F 68 °F  
Max Temperature 74 °F 80 °F 90 °F (1947)
Min Temperature 56 °F 57 °F 36 °F (1948)
Degree Days  
Heating Degree Days 0 2  
Month to date heating degree days 0 15  
Since 1 July heating degree days 0 17  
Cooling Degree Days 0 5  
Month to date cooling degree days 156 131  
Year to date cooling degree days 2601 2702  
Growing Degree Days 16 (Base 50)    
Moisture  
Dew Point 58 °F    
Average Humidity 75    
Maximum Humidity 97    
Minimum Humidity 53    
Precipitation  
Precipitation 1.24 in 0.17 in 1.35 in (1917)
Month to date precipitation 2.61 2.81  
Year to date precipitation 62.17 49.06  
Snow  
Snow 0.00 in - - ()
Month to date snowfall 0.0  
Since 1 July snowfall 0.0  
Since 1 September snowfall 0.0  
Snow Depth 0.00 in    
Sea Level Pressure  
Sea Level Pressure 29.99 in    
Wind  
Wind Speed 4 mph (North)    
Max Wind Speed 10 mph    
Max Gust Speed 69 mph    
Visibility 8 miles    
Events Rain    
T = Trace of Precipitation, MM = Missing Value Source: NWS Daily Summary

Daily Weather History Graph

Daily Weather History Graph

Search for Another Location

Airport:

Trip Planner

Search our weather history database for the weather conditions in past years. The results will help you decide how hot, cold, wet, or windy it might be!

Date:

Astronomy

Oct. 19, 2013 Rise Set
Actual Time 7:09 AM CDT 6:28 PM CDT
Civil Twilight 6:45 AM CDT 6:53 PM CDT
Nautical Twilight 6:17 AM CDT 7:21 PM CDT
Astronomical Twilight 5:49 AM CDT 7:49 PM CDT
Moon 7:01 PM CDT (10/19) 7:43 AM CDT (10/19)
Length of Visible Light 12h 07m
Length of Day
11h 18m
Waxing Gibbous, 99% of the Moon is Illuminated
Oct 19
Waxing Gibbous
Oct 26
Last Quarter
Nov 3
New
Nov 9
First Quarter
Nov 17
Full

Hourly Weather History & Observations

Time (CDT) Temp. Dew Point Humidity Pressure Visibility Wind Dir Wind Speed Gust Speed Precip Events Conditions
12:53 AM 63.0 °F 59.0 °F 87% 29.94 in 10.0 mi NE 4.6 mph - N/A   Overcast
1:53 AM 63.0 °F 59.0 °F 87% 29.93 in 10.0 mi Calm Calm - N/A   Mostly Cloudy
2:53 AM 62.1 °F 59.0 °F 90% 29.93 in 10.0 mi Calm Calm - N/A   Scattered Clouds
3:46 AM 62.6 °F 59.0 °F 88% 29.99 in 2.5 mi WNW 5.8 mph - 0.03 in Rain Heavy Rain
3:53 AM 61.0 °F 59.0 °F 93% 29.98 in 1.2 mi NNW 3.5 mph - 0.16 in Rain Heavy Rain
4:03 AM 60.8 °F 60.8 °F 100% 29.99 in 2.0 mi NNW 3.5 mph - 0.14 in Rain Heavy Rain
4:42 AM 60.8 °F 59.0 °F 94% 29.97 in 4.0 mi ENE 5.8 mph - 0.48 in Rain Rain
4:53 AM 60.1 °F 59.0 °F 96% 29.97 in 4.0 mi North 4.6 mph - 0.52 in Rain Rain
5:53 AM 60.1 °F 59.0 °F 96% 29.99 in 5.0 mi ENE 4.6 mph - 0.25 in Rain Heavy Rain
6:20 AM 60.8 °F 59.0 °F 94% 29.98 in 4.0 mi NNE 4.6 mph - 0.15 in Rain Heavy Rain
6:53 AM 59.0 °F 57.9 °F 96% 29.96 in 10.0 mi NNE 5.8 mph - 0.25 in Rain Light Rain
7:32 AM 59.0 °F 57.2 °F 94% 29.99 in 9.0 mi NE 3.5 mph - 0.04 in Rain Light Rain
7:53 AM 60.1 °F 57.9 °F 93% 29.99 in 7.0 mi NNE 3.5 mph - 0.06 in Rain Light Rain
8:09 AM 60.8 °F 57.2 °F 88% 29.99 in 9.0 mi NE 3.5 mph - 0.00 in Rain Light Rain
8:53 AM 61.0 °F 59.0 °F 93% 30.00 in 10.0 mi NNE 4.6 mph - 0.00 in   Mostly Cloudy
9:53 AM 63.0 °F 59.0 °F 87% 30.02 in 10.0 mi Variable 3.5 mph - N/A   Overcast
10:53 AM 64.9 °F 61.0 °F 87% 30.03 in 10.0 mi NW 5.8 mph - N/A   Mostly Cloudy
11:53 AM 68.0 °F 60.1 °F 76% 30.03 in 10.0 mi NW 5.8 mph - N/A   Mostly Cloudy
12:53 PM 71.1 °F 59.0 °F 66% 30.01 in 10.0 mi Variable 4.6 mph - N/A   Scattered Clouds
1:53 PM 73.0 °F 57.9 °F 59% 29.99 in 10.0 mi NNW 6.9 mph - N/A   Mostly Cloudy
2:53 PM 73.9 °F 57.0 °F 55% 29.98 in 10.0 mi Variable 3.5 mph - N/A   Mostly Cloudy
3:00 PM 73.4 °F 57.2 °F 57% 29.98 in 10.0 mi NW 5.8 mph - N/A   Mostly Cloudy
3:53 PM 73.0 °F 55.9 °F 55% 29.98 in 10.0 mi Variable 3.5 mph - N/A   Mostly Cloudy
4:53 PM 73.9 °F 55.9 °F 53% 29.97 in 10.0 mi Variable 3.5 mph - N/A   Scattered Clouds
5:53 PM 70.0 °F 57.0 °F 63% 29.98 in 10.0 mi NNW 4.6 mph - N/A   Partly Cloudy
6:53 PM 66.0 °F 59.0 °F 78% 30.00 in 10.0 mi NW 5.8 mph - N/A   Partly Cloudy
7:53 PM 64.0 °F 57.9 °F 80% 30.02 in 10.0 mi NW 4.6 mph - N/A   Mostly Cloudy
8:53 PM 63.0 °F 57.0 °F 81% 30.04 in 10.0 mi NNW 3.5 mph - N/A   Partly Cloudy
9:53 PM 61.0 °F 55.9 °F 83% 30.04 in 10.0 mi Calm Calm - N/A   Scattered Clouds
10:53 PM 59.0 °F 55.0 °F 87% 30.05 in 10.0 mi Variable 3.5 mph - N/A   Scattered Clouds
11:53 PM 57.0 °F 54.0 °F 89% 30.05 in 10.0 mi Calm Calm - N/A   Clear